Overview Statistics Trail Chart Weather Telemetry Raw packets
 

This is the latest recevied weather packets stored in our database for station/object K0QED. If no packets are shown the sender has not sent any weather packets the latest 10 day(s).

<< 68 69 70 71 72 73 74 >>
Time Temp. Humidity Pressure Rain* Wind** Luminosity Snow
1788141103 16.67° C 67% 1026 hPa 0 mm - 0 W/m² -
1788140798 16.67° C 67% 1026.2 hPa 0 mm - 0 W/m² -
1788140493 16.67° C 67% 1026.1 hPa 0 mm - 0 W/m² -
1788140190 16.67° C 66% 1026 hPa 0 mm - 0 W/m² -
1788139889 16.67° C 68% 1025.9 hPa 0 mm - 0 W/m² -
1788139584 16.67° C 68% 1026 hPa 0 mm - 1 W/m² -
1788139279 16.67° C 69% 1025.7 hPa 0 mm - 2 W/m² -
1788138979 16.67° C 68% 1025.7 hPa 0 mm - 4 W/m² -
1788138675 16.67° C 68% 1025.9 hPa 0 mm - 8 W/m² -
1788138370 16.67° C 69% 1025.6 hPa 0 mm - 13 W/m² -
1788138066 17.22° C 68% 1025.9 hPa 0 mm - 15 W/m² -
1788137765 17.22° C 68% 1026 hPa 0 mm - 14 W/m² -
1788137460 17.22° C 67% 1025.7 hPa 0 mm - 20 W/m² -
1788137156 17.22° C 67% 1026 hPa 0 mm - 26 W/m² -
1788136862 17.22° C 67% 1026 hPa 0 mm - 32 W/m² -
1788136548 17.22° C 67% 1026.2 hPa 0 mm - 34 W/m² -
1788136243 17.78° C 66% 1026.4 hPa 0 mm - 41 W/m² -
1788135942 17.78° C 67% 1026.2 hPa 0 mm - 47 W/m² -
1788135637 17.78° C 66% 1026.4 hPa 0 mm - 52 W/m² -
1788135333 17.78° C 66% 1026.1 hPa 0 mm - 59 W/m² -
1788135029 17.78° C 66% 1026.4 hPa 0 mm - 44 W/m² -
1788134725 17.78° C 66% 1026.4 hPa 0 mm - 40 W/m² -
1788134424 17.78° C 65% 1026.6 hPa 0 mm - 47 W/m² -
1788134118 17.78° C 65% 1026.5 hPa 0 mm - 54 W/m² -
1788133813 17.78° C 64% 1026.5 hPa 0 mm - 70 W/m² -

* Rain latest hour (hover to see other rain measurements)
** Current wind speed in m/s (hover to see current wind gust speed)